Tracking 19181 objects as of 17-Jun-2018
HD Live streaming from Space Station
objects crossing your sky now

FENGYUN 1C DEB

Track FENGYUN 1C DEB now!
10-day predictions


NORAD ID: 31546
Int'l Code: 1999-025BYM
Perigee: 780.8 km
Apogee: 1,041.0 km
Inclination: 98.2 °
Period: 103.1 minutes
Semi major axis: 7281 km
RCS: 0.0099 m2 (small)
Launch date: May 10, 1999
Source: People's Republic of China (PRC)
Launch site: Taiyaun Space Center, China (TSC)

Note: This is SATELLITE DEBRIS
aabbcc
Your satellite tracking list
Your tracking list is empty




NASA's NSSDC Master Catalog

Two Line Element Set (TLE):
1 31546U 99025BYM 18167.81177753 +.00000384 +00000-0 +26403-3 0  9999
2 31546 098.2361 106.6275 0178719 330.4166 028.6980 13.97128891564673
Source of the keplerian elements: AFSPC